Weather History for KI39 - January, 2013

Change the Weather History Date:

Thursday, January 17, 2013

  Actual Average (KLOZ) Record (KLOZ)
Temperature  
Mean Temperature 32 °F 35 °F  
Max Temperature 35 °F 45 °F 69 °F (1974)
Min Temperature 30 °F 26 °F -15 °F (1982)
Degree Days  
Heating Degree Days 32 30  
Month to date heating degree days 506  
Since 1 July heating degree days 2158  
Cooling Degree Days 0 0  
Month to date cooling degree days 0  
Year to date cooling degree days 0  
Moisture  
Dew Point 28 °F    
Average Humidity 85    
Maximum Humidity 93    
Minimum Humidity 75    
Precipitation  
Precipitation 0.00 in 0.11 in 1.84 in (2006)
Month to date precipitation 1.94  
Year to date precipitation 1.94  
Sea Level Pressure  
Sea Level Pressure 30.16 in    
Wind  
Wind Speed 4 mph (North)    
Max Wind Speed 13 mph    
Max Gust Speed 17 mph    
Visibility 9 miles    
Events      
T = Trace of Precipitation, MM = Missing Value Source: NWS Daily Summary

Daily Weather History Graph

Daily Weather History Graph

Search for Another Location

Airport or City:

Trip Planner

Search our weather history database for the weather conditions in past years. The results will help you decide how hot, cold, wet, or windy it might be!

Date:

Astronomy

Jan. 17, 2013 Rise Set
Actual Time 7:50 AM EST 5:45 PM EST
Civil Twilight 7:21 AM EST 6:13 PM EST
Nautical Twilight 6:49 AM EST 6:45 PM EST
Astronomical Twilight 6:18 AM EST 7:17 PM EST
Moon 11:05 AM EST (1/17) No Moon Set
Length of Visible Light 10h 51m
Length of Day
9h 54m
Waxing Crescent, 37% of the Moon is Illuminated
Jan 17
Waxing Crescent
Jan 18
First Quarter
Jan 26
Full
Feb 3
Last Quarter
Feb 10
New

Hourly Weather History & Observations

Time (EST) Temp. Windchill Dew Point Humidity Pressure Visibility Wind Dir Wind Speed Gust Speed Precip Events Conditions
12:15 AM 33.8 °F 30.8 °F 32.0 °F 93% 30.11 in 5.0 mi West 3.5 mph - N/A   Overcast
12:35 AM 33.8 °F 30.8 °F 32.0 °F 93% 30.11 in 5.0 mi SW 3.5 mph - N/A   Overcast
12:55 AM 33.8 °F 30.8 °F 32.0 °F 93% 30.10 in 5.0 mi WNW 3.5 mph - N/A   Mostly Cloudy
1:15 AM 33.8 °F 29.6 °F 32.0 °F 93% 30.11 in 5.0 mi WNW 4.6 mph - N/A   Mostly Cloudy
1:35 AM 33.8 °F 29.6 °F 32.0 °F 93% 30.13 in 5.0 mi WNW 4.6 mph - N/A   Overcast
2:15 AM 33.8 °F - 32.0 °F 93% 30.12 in 7.0 mi Calm Calm - N/A   Overcast
2:35 AM 33.8 °F - 30.2 °F 87% 30.13 in 7.0 mi Calm Calm - N/A   Overcast
2:55 AM 33.8 °F - 30.2 °F 87% 30.12 in 10.0 mi Calm Calm - N/A   Overcast
3:15 AM 33.8 °F 29.6 °F 30.2 °F 87% 30.13 in 7.0 mi NW 4.6 mph - N/A   Overcast
3:35 AM 32.0 °F - 30.2 °F 93% 30.12 in 7.0 mi Calm Calm - N/A   Overcast
3:55 AM 32.0 °F - 28.4 °F 87% 30.11 in 10.0 mi Calm Calm - N/A   Overcast
4:15 AM 32.0 °F 28.7 °F 30.2 °F 93% 30.10 in 10.0 mi North 3.5 mph - N/A   Overcast
4:35 AM 32.0 °F - 30.2 °F 93% 30.11 in 7.0 mi Calm Calm - N/A   Scattered Clouds
4:55 AM 32.0 °F - 28.4 °F 87% 30.12 in 10.0 mi Calm Calm - N/A   Clear
5:15 AM 32.0 °F - 28.4 °F 87% 30.12 in 10.0 mi Calm Calm - N/A   Clear
5:35 AM 32.0 °F - 28.4 °F 87% 30.12 in 10.0 mi Calm Calm - N/A   Clear
5:55 AM 32.0 °F 27.5 °F 28.4 °F 87% 30.11 in 10.0 mi North 4.6 mph - N/A   Scattered Clouds
6:15 AM 32.0 °F - 28.4 °F 87% 30.12 in 10.0 mi Calm Calm - N/A   Clear
6:35 AM 32.0 °F - 28.4 °F 87% 30.12 in 10.0 mi Calm Calm - N/A   Clear
6:55 AM 32.0 °F 28.7 °F 28.4 °F 87% 30.11 in 10.0 mi NNE 3.5 mph - N/A   Clear
7:15 AM 32.0 °F 27.5 °F 28.4 °F 87% 30.11 in 10.0 mi NE 4.6 mph - N/A   Clear
7:35 AM 32.0 °F 26.4 °F 28.4 °F 87% 30.13 in 10.0 mi North 5.8 mph - N/A   Clear
7:55 AM 32.0 °F 26.4 °F 26.6 °F 80% 30.13 in 10.0 mi NNE 5.8 mph - N/A   Clear
8:15 AM 32.0 °F 27.5 °F 26.6 °F 80% 30.12 in 10.0 mi ENE 4.6 mph - N/A   Clear
8:35 AM 32.0 °F 27.5 °F 26.6 °F 80% 30.13 in 10.0 mi NE 4.6 mph - N/A   Clear
8:55 AM 32.0 °F 25.6 °F 28.4 °F 87% 30.13 in 10.0 mi ENE 6.9 mph - N/A   Clear
9:15 AM 32.0 °F 28.7 °F 26.6 °F 80% 30.13 in 10.0 mi NE 3.5 mph - N/A   Clear
9:35 AM 32.0 °F 26.4 °F 26.6 °F 80% 30.17 in 10.0 mi North 5.8 mph - N/A   Scattered Clouds
9:55 AM 32.0 °F 26.4 °F 26.6 °F 80% 30.17 in 10.0 mi NNE 5.8 mph - N/A   Scattered Clouds
10:15 AM 32.0 °F 25.6 °F 26.6 °F 80% 30.17 in 10.0 mi NNE 6.9 mph - N/A   Scattered Clouds
10:35 AM 32.0 °F 22.5 °F 26.6 °F 80% 30.09 in 10.0 mi NNE 12.7 mph 17.3 mph N/A   Mostly Cloudy
10:55 AM 32.0 °F 25.6 °F 26.6 °F 80% 30.14 in 10.0 mi NNE 6.9 mph 17.3 mph N/A   Scattered Clouds
11:15 AM 32.0 °F 25.6 °F 26.6 °F 80% 30.16 in 10.0 mi NNE 6.9 mph - N/A   Scattered Clouds
11:35 AM 32.0 °F 25.6 °F 26.6 °F 80% 30.15 in 10.0 mi NNE 6.9 mph - N/A   Clear
11:55 AM 32.0 °F 23.6 °F 26.6 °F 80% 30.14 in 10.0 mi NE 10.4 mph - N/A   Clear
12:15 PM 32.0 °F 24.2 °F 26.6 °F 80% 30.13 in 10.0 mi NE 9.2 mph - N/A   Clear
12:35 PM 32.0 °F 23.0 °F 28.4 °F 87% 30.11 in 10.0 mi NNE 11.5 mph - N/A   Clear
12:55 PM 32.0 °F 25.6 °F 28.4 °F 87% 30.10 in 10.0 mi ENE 6.9 mph 17.3 mph N/A   Clear
1:15 PM 33.8 °F 25.3 °F 28.4 °F 81% 30.10 in 10.0 mi NE 11.5 mph - N/A   Clear
1:35 PM 33.8 °F 26.4 °F 28.4 °F 81% 30.11 in 10.0 mi NE 9.2 mph - N/A   Clear
1:55 PM 33.8 °F 27.0 °F 28.4 °F 81% 30.10 in 10.0 mi NE 8.1 mph - N/A   Clear
2:15 PM 33.8 °F 26.4 °F 28.4 °F 81% 30.10 in 10.0 mi ENE 9.2 mph - N/A   Clear
2:35 PM 33.8 °F 26.4 °F 28.4 °F 81% 30.08 in 10.0 mi NE 9.2 mph - N/A   Clear
2:55 PM 35.6 °F 29.2 °F 30.2 °F 81% 30.09 in 10.0 mi NE 8.1 mph - N/A   Scattered Clouds
3:15 PM 35.6 °F 28.6 °F 28.4 °F 75% 30.08 in 10.0 mi NNE 9.2 mph - N/A   Scattered Clouds
3:35 PM 35.6 °F 27.5 °F 28.4 °F 75% 30.10 in 10.0 mi NE 11.5 mph - N/A   Scattered Clouds
3:55 PM 35.6 °F 30.7 °F 28.4 °F 75% 30.12 in 10.0 mi NNE 5.8 mph - N/A   Clear
4:15 PM 35.6 °F 30.7 °F 28.4 °F 75% 30.13 in 10.0 mi North 5.8 mph - N/A   Clear
4:35 PM 35.6 °F 28.0 °F 28.4 °F 75% 30.15 in 10.0 mi North 10.4 mph - N/A   Clear
4:55 PM 35.6 °F 28.6 °F 28.4 °F 75% 30.15 in 10.0 mi North 9.2 mph - N/A   Clear
5:15 PM 35.6 °F 29.9 °F 28.4 °F 75% 30.18 in 10.0 mi North 6.9 mph - N/A   Clear
5:35 PM 35.6 °F 28.6 °F 28.4 °F 75% 30.19 in 10.0 mi North 9.2 mph - N/A   Clear
5:55 PM 33.8 °F 27.7 °F 28.4 °F 81% 30.19 in 10.0 mi North 6.9 mph - N/A   Clear
6:15 PM 33.8 °F 27.0 °F 28.4 °F 81% 30.20 in 10.0 mi North 8.1 mph - N/A   Clear
6:35 PM 33.8 °F 30.8 °F 28.4 °F 81% 30.23 in 10.0 mi North 3.5 mph - N/A   Clear
6:55 PM 32.0 °F 24.8 °F 28.4 °F 87% 30.22 in 10.0 mi North 8.1 mph - N/A   Clear
7:15 PM 32.0 °F - 28.4 °F 87% 30.24 in 10.0 mi Calm Calm - N/A   Clear
7:35 PM 32.0 °F - 28.4 °F 87% 30.25 in 10.0 mi Calm Calm - N/A   Clear
7:55 PM 32.0 °F - 28.4 °F 87% 30.26 in 10.0 mi Calm Calm - N/A   Clear
8:15 PM 30.2 °F 26.7 °F 28.4 °F 93% 30.27 in 10.0 mi WNW 3.5 mph - N/A   Clear
8:35 PM 30.2 °F 26.7 °F 28.4 °F 93% 30.28 in 10.0 mi NW 3.5 mph - N/A   Clear
9:15 PM 30.2 °F 25.4 °F 28.4 °F 93% 30.30 in 10.0 mi West 4.6 mph - N/A   Clear
9:35 PM 30.2 °F 24.3 °F 28.4 °F 93% 30.31 in 7.0 mi West 5.8 mph - N/A   Clear
9:55 PM 30.2 °F 25.4 °F 26.6 °F 86% 30.33 in 7.0 mi West 4.6 mph - N/A   Clear
10:15 PM 30.2 °F 25.4 °F 26.6 °F 86% 30.34 in 10.0 mi WNW 4.6 mph - N/A   Scattered Clouds
10:35 PM 30.2 °F 25.4 °F 26.6 °F 86% 30.34 in 10.0 mi West 4.6 mph - N/A   Scattered Clouds
10:55 PM 30.2 °F 24.3 °F 26.6 °F 86% 30.34 in 10.0 mi West 5.8 mph - N/A   Scattered Clouds